Weather Roundup
Issued by NWS Chicago, IL

Home | Current Version | Previous Version | Text Only | Print | Product List | Glossary On
Versions: 1 2 3 4 5 6 7 8 9 10 11 12 13 14 15 16 17 18 19 20 21 22 23 24 25 26 27 28 29 30 31 32 33 34 35 36 37 38 39 40 41 42 43 44 45 46 47 48 49 50
000
NZUS59 KLOT 190808
HRRLOT

CHICAGO AREA WEATHER ROUNDUP
NATIONAL WEATHER SERVICE CHICAGO/ROMEOVILLE IL
200 AM CST MON FEB 19 2018

NOTE: "FAIR" INDICATES FEW OR NO CLOUDS BELOW 12,000 FEET WITH NO
SIGNIFICANT WEATHER AND/OR OBSTRUCTIONS TO VISIBILITY.

* THESE STATIONS ARE NOT UNDER NWS QUALITY CONTROL. THEY ALSO MAY NOT
  REPORT WEATHER SUCH AS PRECIPITATION OR FOG.

ILZ005-006-012>014-019>023-190900-
NORTHEAST ILLINOIS

CITY           SKY/WX    TMP DP  RH WIND       PRES   REMARKS
OHARE          CLOUDY    39  32  76 S10       29.86S
MIDWAY         CLOUDY    40  34  79 S9        29.88R
AURORA         CLOUDY    37  33  85 S9        29.86S
LANSING*       RAIN      37  35  91 S7        29.90S
JOLIET*        CLOUDY    39  38  94 S8        29.88S
WAUKEGAN       CLOUDY    40  32  73 SW14      29.85S
DUPAGE AIRPORT CLOUDY    37  34  89 S12       29.85S
WHEELING       CLOUDY    40  33  76 S9        29.87S
KANKAKEE*      RAIN      38  38  98 S5        29.92R
MORRIS*        CLOUDY    36  34  94 S8        29.86F
LEWIS AIRPORT* CLOUDY    36  34  91 S9        29.87S
NORTHERLY ISL    N/A     41  32  70 S13         N/A
$$

WIZ051-052-058>065-066-070>072-190900-
SOUTHEAST WISCONSIN

CITY           SKY/WX    TMP DP  RH WIND       PRES   REMARKS
MILWAUKEE      CLOUDY    38  31  76 S5        29.84S
KENOSHA*       CLOUDY    41  31  67 SW13      29.84F
RACINE*        CLOUDY    36  32  85 S5        29.86F
BURLINGTON     CLOUDY    38  31  75 S10       29.83R
WAUKESHA       CLOUDY    36  30  80 S6        29.83S
WEST BEND      CLOUDY    34  32  93 SW5       29.83S WCI  30
$$

INZ001>003-010>013-019-020-190900-
NORTHWEST INDIANA

CITY           SKY/WX    TMP DP  RH WIND       PRES   REMARKS
GARY*          LGT RAIN  41  35  81 S7        29.90S
MICHIGAN CITY* NOT AVBL
RENSSELAER*    NOT AVBL
VALPARAISO     LGT RAIN  40  34  79 S8        29.91S
$$

LMZ740>746-190900-
SOUTHERN LAKE MICHIGAN

STATION/POSITION TIME  SKY/WX   TEMP WIND        PRES    VSBY
                                AIR  DIR/SP/G
                 (UTC)          (F)  (DEG/KT/KT) (MB)    (MI)
HARRISON CRIB    0740            41  180/ 20/ 21   N/A
BURNHAM HARBOR   0800            40  190/  8/ 15   N/A
CALUMET HARBOR   0748            39  170/  8/ 12 1011.4F
BURNS HARBOR     0740            41  180/ 12/ 21 1012.5F
MICHIGAN CITY    0740            41  170/ 12/ 16   N/A
$$

ABBREVIATIONS USED IN REMARKS
   TC - TEMPERATURE IN CELSIUS
  WCI - WIND CHILL INDEX
   HX - HEAT INDEX
  VSB - VISIBILITY
$$



USA.gov is the U.S. government's official web portal to all federal, state and local government web resources and services.